sat.trackr.live / text

‹ back to catalog

STARLINK-32401

NORAD 61865 · 2024-202W

PAYLOAD ACTIVE UNKNOWN

§ Identity

Operator
Country
US
Launch date
2024-11-07
Launch site
AFETR
Launch vehicle
Mass (kg)
RCS (m²)

Purposes: comms

External: N2YO · Heavens-Above · Gunter

§ Orbital elements

Epoch: 2026-05-25T03:02:52.182240Z

Period
94.27 min
Inclination
43.0004°
Eccentricity
0.0001463
Mean motion
15.27582184 rev/d
Perigee alt
482.0 km
Apogee alt
484.0 km
Semi-major
6,861.2 km
B*
9.1843e-5
RAAN
166.6614°
Arg perigee
264.5226°
Mean anomaly
95.5458°
Rev number
8,702

§ Raw data

STARLINK-324011 61865U 24202W   26145.12699285  .00002266  00000+0  91843-4 0  99902 61865  43.0004 166.6614 0001463 264.5226  95.5458 15.27582184 87026

JSON: /api/v1/satellites/61865 · /tle

For live sub-satellite position, see the globe view (requires WebGL).

§ Visibility from observer

Set your observer location to see the next 7 days of passes ≥ 10°. The values pass through the URL so the page stays shareable.

No JS? Fill the form by hand. The geolocation button needs JavaScript.